Regional Weather Roundup
Issued by NWS

Home | Current Version | Previous Version | Graphics & Text | Print | Product List | Glossary On
Versions: 1 2 3 4 5 6 7 8 9 10 11 12 13 14 15 16 17 18 19 20 21 22 23 24 25 26 27 28 29 30 31 32 33 34 35 36 37 38 39 40 41 42 43 44 45 46 47 48 49 50
000
ASUS43 KIND 060809
RWRIN

WEATHER ROUNDUP FOR INDIANA
NATIONAL WEATHER SERVICE INDIANAPOLIS IN
400 AM EDT MON JUL 06 2015

NOTE: "FAIR" INDICATES FEW OR NO CLOUDS BELOW 12,000 FEET WITH NO
SIGNIFICANT WEATHER AND/OR OBSTRUCTIONS TO VISIBILITY.

* - STATION DOES NOT REPORT WEATHER SUCH AS PRECIPITATION OR FOG.

+ - STATION NOT QUALITY CONTROLLED BY THE NATIONAL WEATHER SERVICE.
    USE DATA WITH CAUTION...ESPECIALLY DEWPOINT AND RELATIVE
    HUMIDITY OBSERVATIONS.

INZ001>003-010>013-019-020-060900-
NORTHWEST INDIANA

CITY           SKY/WX    TMP DP  RH WIND       PRES   REMARKS
GARY /AIRPORT/ CLEAR    N/A N/A N/A SE3       30.02S
KNOX *+        CLEAR     63  63 100 S6        30.03S
LA PORTE +     CLEAR     64  64 100 CALM      30.05R
MICHIGAN CITY+ CLEAR     68  61  77 S6        30.04R
MONTICELLO +   CLEAR     67  64  90 S3        30.04R
RENSSELAER +   CLEAR     66  66 100 SE3       30.04S FOG
VALPARAISO     CLEAR     66  62  87 S5        30.05R

$$

LMZ046-743>745-060900-
SOUTHERN LAKE MICHIGAN

STATION/POSITION TIME  TEMP    WIND        PRES    WAVE
                       AIR SEA DIR/SP/G            HT
                 (UTC) (F)     (DEG/KT/KT) (MB)    (FT)
BURNS HARBOR     0800   71     180/  9/ 12 1017.3R
MICHIGAN CITY    0800   70     140/ 11/ 14   N/A
5NW MICH CITY    0800   68 66  180/  8/ 10   N/A     1

$$

INZ004-005-014>016-021>024-060900-
NORTH CENTRAL INDIANA

CITY           SKY/WX    TMP DP  RH WIND       PRES   REMARKS
GOSHEN         CLEAR     61  58  90 CALM      30.05S
LOGANSPORT +   CLEAR     61  57  88 CALM      30.06S
PERU/GRISSOM   CLEAR     65  61  88 S5        30.05R
ROCHESTER +    CLEAR     70  63  78 SW6       30.05S
SOUTH BEND     CLEAR     65  60  84 CALM      30.05S
WARSAW +         N/A     61  59  94 CALM      30.06R FOG

$$

INZ006>009-017-018-025>027-060900-
NORTHEAST INDIANA

CITY           SKY/WX    TMP DP  RH WIND       PRES   REMARKS
ANGOLA *+        N/A     61  59  94 CALM      30.06S
AUBURN +       CLEAR     59  55  88 CALM      30.07R FOG
FORT WAYNE     CLEAR     63  58  83 CALM      30.06S
HUNTINGTON +   CLEAR     62  60  92 CALM      30.05R

$$

INZ028-029-035-036-043>045-051>053-060900-
WEST CENTRAL INDIANA

CITY           SKY/WX    TMP DP  RH WIND       PRES   REMARKS
GREENCASTLE +    N/A     63  61  94 CALM      30.05S FOG
LAFAYETTE      CLEAR     65  62  90 CALM      30.04R
TERRE HAUTE    CLEAR     68  66  93 CALM      30.04R FOG

$$

INZ030>032-037>040-046>048-054>057-064-065-060900-
CENTRAL INDIANA

CITY           SKY/WX    TMP DP  RH WIND       PRES   REMARKS
CP ATTERBURY +   N/A     61  59  94 CALM      30.05F FOG
FISHERS *+     CLEAR     61  61 100 CALM      30.06
FRANKFORT +    CLEAR    N/A N/A N/A CALM      30.07S HAZE
GREENWOOD *+   CLEAR     64  61  88 CALM      30.06R
INDIANAPOLIS   CLEAR     66  62  87 CALM      30.03S
-EAGLE CREEK   CLEAR     65  63  93 CALM      30.05R
KOKOMO *+      CLEAR     64  59  82 CALM      30.05R
MARION +       CLEAR     61  60  96 CALM      30.06R FOG
MT COMFORT *+  CLEAR     61 N/A N/A W3        30.06S
SHELBYVILLE    CLEAR     63  60  90 CALM      30.04S FOG
ZIONSVILLE +   CLEAR     62  58  88 CALM      30.06S FOG

$$

INZ033-034-041-042-049-050-058-059-060900-
EAST CENTRAL INDIANA

CITY           SKY/WX    TMP DP  RH WIND       PRES   REMARKS
MUNCIE         CLEAR     61  59  93 MISG      30.06S

$$

INZ060-061-067>069-081>083-085>088-060900-
SOUTHWEST INDIANA

CITY           SKY/WX    TMP DP  RH WIND       PRES   REMARKS
EVANSVILLE     PTCLDY    71  68  90 CALM      30.03S FOG
HUNTINGBURG *+ CLEAR     66  63  88 CALM      30.04S
WASHINGTON +   CLEAR     66  62  87 CALM      30.03S FOG

$$

INZ062-063-066-070>080-084-089>092-060900-
SOUTH CENTRAL AND SOUTHEAST INDIANA

CITY           SKY/WX    TMP DP  RH WIND       PRES   REMARKS
BLOOMINGTON    CLEAR     63  62  97 CALM      30.05S FOG
MADISON *+     CLEAR     61  59  94 CALM      30.07S
NORTH VERNON +   N/A     61  61 100 CALM      30.06S FOG
SEYMOUR +      FOG       63  63 100 CALM      30.04F VSB 3/4

$$



USA.gov is the U.S. government's official web portal to all federal, state and local government web resources and services.